This demonstration page uses our WeatherBlox Daily Observations layout. Learn more.

Left ArrowRight Arrow

47.50024, -111.30081

Hourly Observations for June 5, 2020

Temp ( °F °C ) Dew Point ( °F °C ) Humidity (%) Winds ( mph kmh ) Pressure ( in mb ) Visibility ( mi km ) Precip ( " mm )
12:53 am 00:53 Clear 54 12.2 36 2.2 51 51 E 9 15 29.91 1013 10 16 0.00 0.00
1:11 am 01:11 Mostly Clear 53 11.7 36 2.2 52 52 ENE 8 13 29.89 1012 10 16 0.00 0.00
1:53 am 01:53 Clear 50 10 37 2.8 61 61 NE 7 11 29.91 1013 10 16 0.00 0.00
2:53 am 02:53 Clear 50 10 37 2.8 61 61 ENE 3 6 29.90 1012 10 16 0.00 0.00
3:53 am 03:53 Clear 44 6.7 35 1.7 71 71 NNE 7 11 29.91 1013 10 16 0.00 0.00
4:53 am 04:53 Clear 47 8.3 36 2.2 66 66 E 5 7 29.91 1013 10 16 0.00 0.00
5:53 am 05:53 Sunny 45 7.2 35 1.7 68 68 NE 5 7 29.94 1014 10 16 0.00 0.00
6:53 am 06:53 Sunny 50 10 38 3.3 63 63 Calm 29.92 1013 10 16 0.00 0.00
7:53 am 07:53 Sunny 52 11.1 37 2.8 57 57 Calm 29.93 1014 10 16 0.00 0.00
8:53 am 08:53 Sunny 54 12.2 39 3.9 57 57 SW 3 6 29.91 1013 10 16 0.00 0.00
9:53 am 09:53 Sunny 58 14.4 40 4.4 51 51 VRB 3 6 29.91 1013 10 16 0.00 0.00
10:53 am 10:53 Sunny 63 17.2 39 3.9 41 41 Calm 29.86 1011 10 16 0.00 0.00
11:53 am 11:53 Sunny 67 19.4 38 3.3 35 35 NNE 7 11 29.83 1010 10 16 0.00 0.00
12:53 pm 12:53 Partly Cloudy 71 21.7 40 4.4 32 32 NE 7 11 29.81 1009 10 16 0.00 0.00
1:53 pm 13:53 Partly Cloudy 71 21.7 42 5.6 35 35 ENE 8 13 29.78 1009 10 16 0.00 0.00
2:53 pm 14:53 Mostly Sunny 71 21.7 43 6.1 36 36 E 9 15 29.75 1007 10 16 0.00 0.00
3:53 pm 15:53 Mostly Sunny 76 24.4 47 8.3 36 36 NE 13 20 29.71 1006 10 16 0.00 0.00
4:53 pm 16:53 Sunny 76 24.4 47 8.3 36 36 ENE 7 11 29.66 1005 10 16 0.00 0.00
5:53 pm 17:53 Sunny 78 25.6 47 8.3 33 33 NE 13 20 29.62 1003 10 16 0.00 0.00
6:53 pm 18:53 Sunny 79 26.1 50 10 36 36 NE 16 26 29.57 1001 10 16 0.00 0.00
7:53 pm 19:53 Mostly Sunny 76 24.4 47 8.3 36 36 ESE 17 28 29.56 1001 10 16 0.00 0.00
8:53 pm 20:53 Sunny 69 20.6 49 9.4 49 49 S 10 17 29.55 1001 10 16 0.00 0.00
9:53 pm 21:53 Clear 68 20 48 8.9 49 49 ESE 9 15 29.53 1000 10 16 0.00 0.00
10:53 pm 22:53 Clear 65 18.3 49 9.4 56 56 ESE 9 15 29.52 1000 10 16 0.00 0.00
11:53 pm 23:53 Clear 65 18.3 49 9.4 56 56 E 9 15 29.46 998 10 16 0.00 0.00

Powered by AerisWeather